Location: Copetón
(10.0045°N, 67.8273°W)
Time: 22:54:21
(UTC+00:00)

STARLINK-31733 - Pass Details

Date: 18 April 2024
Orbit: 443 x 445 km, 43.0° (Epoch: 24 May)

Event Time Altitude Azimuth Distance (km) Brightness Sun altitude
Rises 23:06:19 0° 320° (NW) 2,437 7.9 -6.7°
Reaches altitude 10° 23:08:28 10° 324° (NW) 1,568 6.8 -7.2°
Maximum altitude 23:11:59 59° 44° (NE) 523 3.3 -8.1°
Enters shadow 23:15:28 10° 124° (SE) 1,559 5.3 -8.9°
